Location: Unspecified
(0.0000°N, 0.0000°E)
Time: 23:15:41
(UTC+00:00)

A-11 Canister half - Pass Details

Date: 14 February 2023
Orbit: 1526 x 1682 km, 47.3° (Epoch: 29 March)

Event Time Altitude Azimuth Distance (km) Brightness Sun altitude
Rises 22:11:09 0° 202° (SSW) 4,879 12.0 -56.9°
Reaches altitude 10° 22:14:45 10° 193° (SSW) 3,870 11.3 -57.7°
Enters shadow 22:15:11 11° 192° (SSW) 3,754 11.2 -57.8°
Maximum altitude 22:23:26 35° 131° (SE) 2,378 - -59.7°
Drops below altitude 10° 22:31:48 10° 69° (ENE) 3,753 - -61.6°
Sets 22:35:11 0° 61° (ENE) 4,715 - -62.3°
